Location: Gugi
(45.4667°N, 11.1000°E)
Time: 05:01:15
(UTC+00:00)

BREEZE-M DEB (TANK) - Pass Details

Date: 17 November 2019
Orbit: 333 x 16598 km, 49.4° (Epoch: 09 December)

Event Time Altitude Azimuth Distance (km) Brightness Sun altitude
Rises 18:20:22 0° 284° (WNW) 4,646 8.2 -27.3°
Reaches altitude 10° 18:24:46 10° 289° (WNW) 2,504 6.5 -28.1°
Enters shadow 18:27:52 30° 307° (NW) 996 4.0 -28.6°
